{"data":{"norad_id":63819,"intl_designator":"2025-092R","name":"STARLINK-34055","alt_names":[],"object_type":"PAYLOAD","status":"ACTIVE","operator":null,"country":"US","launch_date":"2025-05-04","launch_site_code":"AFETR","launch_vehicle":null,"mission":null,"orbit_class":"UNKNOWN","rcs_meters":null,"size_class":null,"mass_kg":null,"dimensions":null,"purposes":["comms"],"wikipedia_slug":null,"has_3d_model":false,"image_url":null,"decayed_at":null,"tle_current":{"epoch":"2026-05-25T00:04:45.151104Z","epoch_age_seconds":78797,"freshness":"FRESH","line1":"1 63819U 25092R   26145.00330036  .00015214  00000+0  55066-3 0  9995","line2":"2 63819  42.9995 101.7295 0001078 268.0087  92.0641 15.28205804 60282","mean_motion":15.28205804,"eccentricity":0.0001078,"inclination_deg":42.9995,"raan_deg":101.7295,"arg_perigee_deg":268.0087,"mean_anomaly_deg":92.0641,"bstar":0.00055066,"rev_number":6028,"period_min":94.228146250386,"perigee_km":480.43641930151,"apogee_km":481.91528715266,"semimajor_km":6859.3128532271,"source":"CELESTRAK","updated_at":"2026-05-25T13:38:20.142541Z"}}}